Meteo orario Golaghat

Oggi, 16 Aprile, Venerdi

Tempo Temperatura Precipitazioni Vento Pressione Umidità
00:00 +28°C° 0 mm 1 m/s 747 mm Hg 44%
01:00 +27°C° 0 mm 1 m/s 747 mm Hg 46%
02:00 +27°C° 0 mm 1 m/s 747 mm Hg 48%
03:00 +26°C° 0 mm 1 m/s 746 mm Hg 50%
04:00 +26°C° 0 mm 1 m/s 747 mm Hg 50%
05:00 +26°C° 0 mm 1 m/s 747 mm Hg 49%
06:00 +26°C° 0 mm 1 m/s 748 mm Hg 50%
07:00 +27°C° 0 mm 1 m/s 748 mm Hg 46%
08:00 +29°C° 0 mm 1 m/s 749 mm Hg 42%
09:00 +30°C° 0 mm 1 m/s 750 mm Hg 38%
10:00 +33°C° 0 mm 1 m/s 749 mm Hg 33%
11:00 +35°C° 0 mm 1 m/s 748 mm Hg 29%
12:00 +36°C° 0 mm 1 m/s 748 mm Hg 26%
13:00 +37°C° 0 mm 1 m/s 747 mm Hg 25%
14:00 +37°C° 0 mm 1 m/s 746 mm Hg 23%
15:00 +39°C° 0 mm 2 m/s 745 mm Hg 22%
16:00 +37°C° 0.1 mm 2 m/s 745 mm Hg 27%
17:00 +35°C° 0.1 mm 2 m/s 746 mm Hg 31%
18:00 +32°C° 0.1 mm 2 m/s 746 mm Hg 36%
19:00 +30°C° 0.1 mm 2 m/s 747 mm Hg 41%
20:00 +29°C° 0.1 mm 1 m/s 748 mm Hg 47%
21:00 +27°C° 0.1 mm 1 m/s 748 mm Hg 52%
22:00 +27°C° 0 mm 1 m/s 749 mm Hg 53%
23:00 +27°C° 0 mm 1 m/s 749 mm Hg 54%

Domani, 17 Aprile, Sabato

Tempo Temperatura Precipitazioni Vento Pressione Umidità
00:00 +26°C° 0 mm 2 m/s 749 mm Hg 54%
01:00 +26°C° 0 mm 1 m/s 748 mm Hg 56%
02:00 +26°C° 0 mm 1 m/s 748 mm Hg 57%
03:00 +25°C° 0 mm 1 m/s 747 mm Hg 59%
04:00 +25°C° 0 mm 1 m/s 748 mm Hg 59%
05:00 +25°C° 0 mm 1 m/s 749 mm Hg 60%
06:00 +25°C° 0 mm 1 m/s 749 mm Hg 60%
07:00 +27°C° 0.1 mm 1 m/s 750 mm Hg 54%
08:00 +29°C° 0.1 mm 1 m/s 750 mm Hg 49%
09:00 +31°C° 0.1 mm 2 m/s 751 mm Hg 43%
10:00 +32°C° 0 mm 2 m/s 750 mm Hg 40%
11:00 +34°C° 0 mm 2 m/s 750 mm Hg 36%
12:00 +35°C° 0 mm 2 m/s 749 mm Hg 32%
13:00 +36°C° 0 mm 2 m/s 748 mm Hg 30%
14:00 +37°C° 0 mm 3 m/s 747 mm Hg 27%
15:00 +38°C° 0 mm 3 m/s 746 mm Hg 25%
16:00 +36°C° 0.2 mm 2 m/s 746 mm Hg 32%
17:00 +32°C° 0.2 mm 2 m/s 746 mm Hg 40%
18:00 +30°C° 0.2 mm 2 m/s 746 mm Hg 47%
19:00 +28°C° 0.3 mm 2 m/s 747 mm Hg 56%
20:00 +26°C° 0.3 mm 2 m/s 749 mm Hg 64%
21:00 +24°C° 0.3 mm 1 m/s 750 mm Hg 73%
22:00 +24°C° 0 mm 1 m/s 749 mm Hg 74%
23:00 +24°C° 0 mm 2 m/s 749 mm Hg 75%

Dopodomani, 18 Aprile, Domenica

Tempo Temperatura Precipitazioni Vento Pressione Umidità
00:00 +24°C° 0 mm 2 m/s 749 mm Hg 76%
01:00 +23°C° 0 mm 1 m/s 749 mm Hg 77%
02:00 +23°C° 0 mm 1 m/s 749 mm Hg 78%
03:00 +23°C° 0 mm 1 m/s 748 mm Hg 79%
04:00 +23°C° 0 mm 1 m/s 749 mm Hg 78%
05:00 +23°C° 0 mm 1 m/s 749 mm Hg 78%
06:00 +23°C° 0 mm 1 m/s 750 mm Hg 77%
07:00 +25°C° 0.1 mm 1 m/s 750 mm Hg 68%
08:00 +27°C° 0.1 mm 1 m/s 751 mm Hg 59%
09:00 +30°C° 0.1 mm 1 m/s 751 mm Hg 50%
10:00 +31°C° 0 mm 1 m/s 751 mm Hg 45%
11:00 +33°C° 0 mm 1 m/s 750 mm Hg 40%
12:00 +34°C° 0 mm 1 m/s 749 mm Hg 36%
13:00 +34°C° 0 mm 1 m/s 748 mm Hg 36%
14:00 +35°C° 0 mm 2 m/s 747 mm Hg 37%
15:00 +34°C° 0 mm 2 m/s 746 mm Hg 38%
16:00 +32°C° 0.2 mm 2 m/s 745 mm Hg 43%
17:00 +30°C° 0.2 mm 2 m/s 745 mm Hg 49%
18:00 +29°C° 0.2 mm 2 m/s 745 mm Hg 54%
19:00 +27°C° 0.5 mm 2 m/s 746 mm Hg 62%
20:00 +26°C° 0.5 mm 1 m/s 747 mm Hg 70%
21:00 +24°C° 0.5 mm 1 m/s 748 mm Hg 78%
22:00 +24°C° 0.2 mm 1 m/s 748 mm Hg 79%
23:00 +23°C° 0.2 mm 1 m/s 748 mm Hg 81%

19 Aprile, Lunedi

Tempo Temperatura Precipitazioni Vento Pressione Umidità
00:00 +23°C° 0.2 mm 1 m/s 748 mm Hg 83%
01:00 +23°C° 0.9 mm 1 m/s 747 mm Hg 86%
02:00 +22°C° 0.9 mm 1 m/s 747 mm Hg 88%
03:00 +22°C° 0.9 mm 1 m/s 747 mm Hg 91%
04:00 +22°C° 0.2 mm 1 m/s 747 mm Hg 91%
05:00 +22°C° 0.2 mm 1 m/s 748 mm Hg 90%
06:00 +22°C° 0.2 mm 1 m/s 748 mm Hg 90%
07:00 +24°C° 0.1 mm 1 m/s 748 mm Hg 81%
08:00 +26°C° 0.1 mm 1 m/s 748 mm Hg 72%
09:00 +28°C° 0.1 mm 2 m/s 749 mm Hg 63%
10:00 +30°C° 0.1 mm 1 m/s 748 mm Hg 56%
11:00 +32°C° 0.1 mm 1 m/s 747 mm Hg 48%
12:00 +34°C° 0.1 mm 1 m/s 747 mm Hg 41%
13:00 +35°C° 0 mm 2 m/s 746 mm Hg 39%
14:00 +36°C° 0 mm 3 m/s 744 mm Hg 37%
15:00 +36°C° 0 mm 3 m/s 743 mm Hg 36%
16:00 +34°C° 0.3 mm 3 m/s 744 mm Hg 45%
17:00 +31°C° 0.3 mm 3 m/s 744 mm Hg 54%
18:00 +28°C° 0.3 mm 3 m/s 744 mm Hg 63%
19:00 +27°C° 0.2 mm 3 m/s 745 mm Hg 67%
20:00 +26°C° 0.2 mm 2 m/s 745 mm Hg 72%
21:00 +25°C° 0.2 mm 1 m/s 746 mm Hg 77%
22:00 +25°C° 0.1 mm 1 m/s 746 mm Hg 79%
23:00 +25°C° 0.1 mm 2 m/s 746 mm Hg 81%

20 Aprile, Martedi

Tempo Temperatura Precipitazioni Vento Pressione Umidità
00:00 +24°C° 0.1 mm 2 m/s 746 mm Hg 83%
01:00 +24°C° 0.3 mm 2 m/s 746 mm Hg 85%
02:00 +22°C° 0.3 mm 3 m/s 745 mm Hg 87%
03:00 +22°C° 0.3 mm 3 m/s 745 mm Hg 89%
04:00 +22°C° 0.3 mm 3 m/s 746 mm Hg 89%
05:00 +23°C° 0.3 mm 2 m/s 747 mm Hg 89%
06:00 +23°C° 0.3 mm 2 m/s 747 mm Hg 90%
07:00 +25°C° 0.1 mm 2 m/s 748 mm Hg 80%
08:00 +27°C° 0.1 mm 2 m/s 748 mm Hg 70%
09:00 +29°C° 0.1 mm 2 m/s 749 mm Hg 60%
10:00 +30°C° 0 mm 2 m/s 748 mm Hg 53%
11:00 +33°C° 0 mm 3 m/s 748 mm Hg 46%
12:00 +35°C° 0 mm 3 m/s 747 mm Hg 39%
13:00 +36°C° 0 mm 3 m/s 746 mm Hg 37%
14:00 +36°C° 0 mm 4 m/s 745 mm Hg 36%
15:00 +37°C° 0 mm 4 m/s 744 mm Hg 34%
16:00 +34°C° 0.3 mm 3 m/s 745 mm Hg 42%
17:00 +31°C° 0.3 mm 2 m/s 745 mm Hg 50%
18:00 +29°C° 0.3 mm 2 m/s 745 mm Hg 58%
19:00 +28°C° 0.2 mm 2 m/s 746 mm Hg 64%
20:00 +26°C° 0.2 mm 2 m/s 747 mm Hg 70%
21:00 +25°C° 0.2 mm 1 m/s 747 mm Hg 76%
22:00 +25°C° 0 mm 1 m/s 747 mm Hg 76%
23:00 +25°C° 0 mm 1 m/s 747 mm Hg 77%

21 Aprile, Mercoledi

Tempo Temperatura Precipitazioni Vento Pressione Umidità
00:00 +24°C° 0 mm 1 m/s 748 mm Hg 78%
01:00 +24°C° 0.1 mm 1 m/s 747 mm Hg 79%
02:00 +24°C° 0.1 mm 1 m/s 747 mm Hg 80%
03:00 +24°C° 0.1 mm 1 m/s 747 mm Hg 80%
04:00 +24°C° 0 mm 1 m/s 748 mm Hg 79%
05:00 +24°C° 0 mm 1 m/s 748 mm Hg 79%
06:00 +22°C° 0 mm 0 m/s 749 mm Hg 78%
07:00 +24°C° 0 mm 0 m/s 749 mm Hg 68%
08:00 +29°C° 0 mm 1 m/s 750 mm Hg 58%
09:00 +31°C° 0 mm 1 m/s 750 mm Hg 49%
10:00 +33°C° 0 mm 1 m/s 749 mm Hg 43%
11:00 +35°C° 0 mm 1 m/s 749 mm Hg 38%
12:00 +38°C° 0 mm 2 m/s 748 mm Hg 33%
13:00 +38°C° 0 mm 2 m/s 747 mm Hg 31%
14:00 +39°C° 0 mm 2 m/s 746 mm Hg 30%
15:00 +39°C° 0 mm 2 m/s 745 mm Hg 28%
16:00 +38°C° 0 mm 2 m/s 745 mm Hg 32%
17:00 +36°C° 0 mm 2 m/s 745 mm Hg 35%
18:00 +34°C° 0 mm 2 m/s 745 mm Hg 39%
19:00 +32°C° 0.1 mm 2 m/s 746 mm Hg 45%
20:00 +30°C° 0.1 mm 2 m/s 747 mm Hg 51%
21:00 +28°C° 0.1 mm 2 m/s 747 mm Hg 58%
22:00 +28°C° 0 mm 1 m/s 747 mm Hg 60%
23:00 +27°C° 0 mm 1 m/s 747 mm Hg 62%
Mostrare altro

Abbiamo bisogno del tuo consenso

Meteoprog e i nostri fornitori di servizi possono memorizzare e accedere a dati personali come cookie, identificatori di dispositivi o altre tecnologie simili sul tuo dispositivo e possono elaborare tali dati per personalizzare i contenuti e gli annunci, nonché fornire funzionalità dei social media e analizzarne il traffico.

  • Archiviare e/o accedere alle informazioni sul tuo dispositivo

    Cookie, identificatori di dispositivi o altre informazioni possono essere memorizzati o resi accessibili sul tuo dispositivo per le finalità sopra indicate.

  • Annunci e contenuti personalizzati, misurazione di annunci e contenuti, approfondimenti sul pubblico e sviluppo di prodotti

    Gli annunci e i contenuti possono essere personalizzati in base a un profilo. È possibile aggiungere più dati per personalizzare meglio annunci e contenuti. È possibile misurare il rendimento degli annunci e dei contenuti. È possibile ricavare informazioni sul pubblico che ha visto gli annunci e i contenuti. Tali dati possono essere utilizzati per sviluppare o migliorare l'esperienza, i sistemi e il software dell'utente.

Cliccando su “Accetto”, acconsenti all'uso di cookie, identificatori di dispositivo, web beacon o altre tecnologie simili. Puoi modificare le impostazioni nel browser del tuo dispositivo.

Per determinati scopi, è possibile fare affidamento su interessi legali, piuttosto che sul consenso. Puoi approfondire questo argomento consultando la nostra Informativa sulla privacy e sui cookie.